Regional Weather Roundup
Issued by NWS Newport/Morehead, NC

Current Version | Previous Version | Graphics & Text | Print | Product List | Glossary Off
Versions: 1 2 3 4 5 6 7 8 9 10 11 12 13 14 15 16 17 18 19 20 21 22 23 24 25 26 27 28 29 30 31 32 33 34 35 36 37 38 39 40 41 42 43 44 45 46 47 48 49 50

000
ASUS42 KMHX 270413
RWRMHX
WEATHER ROUNDUP FOR EASTERN NORTH CAROLINA
NATIONAL WEATHER SERVICE NEWPORT/MOREHEAD CITY NC
1200 AM EDT WED JUL 27 2016

NOTE: "FAIR" INDICATES FEW OR NO CLOUDS BELOW 12,000 FEET
WITH NO SIGNIFICANT WEATHER AND/OR OBSTRUCTIONS TO VISIBILITY

NCZ015>017-031-032-045>047-102-103-270500-
NORTH COAST

CITY           SKY/WX    TMP DP  RH WIND       PRES   REMARKS
EDENTON        CLOUDY   N/A N/A N/A CALM      29.97S
ELIZABETH CITY CLOUDY    77  75  93 S3        29.96S
KITTY HAWK     CLOUDY    80  76  89 SW5       29.95R
MANTEO           N/A     79  79 100 CALM      29.97R

$$

NCZ045>047-081-094-103-104-270500-
CENTRAL COAST

CITY           SKY/WX    TMP DP  RH WIND       PRES   REMARKS
FRISCO         CLOUDY    83  77  82 W12       29.98R

$$

NCZ095-097-098-100-101-270500-
SOUTHERN COAST

CITY           SKY/WX    TMP DP  RH WIND       PRES   REMARKS
BEAUFORT       CLOUDY    83  78  85 SW12      30.00R
CEDAR ISLAND   NOT AVBL
JACKSONVILLE   CLEAR     79  74  84 SW7       29.99R
PINEY ISLAND   NOT AVBL
WILMINGTON     CLEAR     81  76  84 SW7       30.01R


$$

NCZ011>013-027>030-043-044-078>080-089-090>093-098-270500-
COASTAL PLAIN

CITY           SKY/WX    TMP DP  RH WIND       PRES   REMARKS
AHOSKIE        CLOUDY    75  74  98 CALM      29.96F FOG
CLINTON        CLEAR     82  76  84 S3        29.99S
ELIZABETHTOWN  CLEAR     81  75  81 S6        29.99S
GOLDSBORO      MOCLDY    83  79  87 SW5       29.97R
GREENVILLE     CLOUDY    82  79  89 W6        30.00R
HAVELOCK       CLEAR     80  76  87 SW8       30.00R
KENANSVILLE    NOT AVBL
KINSTON        CLOUDY    82  74  76 SW6       29.99R
NEW BERN       CLEAR     79  74  84 SW6       30.00R
RICHLANDS      CLEAR     79  75  87 S8        30.00R
ROCKY MOUNT    CLOUDY    81  78  91 CALM      29.98R
WASHINGTON     CLOUDY    82  75  78 SW7       29.97S
WHITEVILLE     CLEAR     80  75  85 SW3       30.00R

$$

AMZ130-135-150-152-154-156-158-170-250-252-270-ANZ085-086-088-633-658-670-270500-
MARINE OBSERVATIONS

STATION/POSITION TIME  TEMP    WIND        PRES    WAVE   SWELL
                       AIR SEA DIR/SP/G            HT/PER HT/PER
                 (UTC) (F)     (DEG/KT/KT) (MB)    (FT/S) (FT/S)
CHESAPEAKE LIGHT NOT AVBL
64 E VA BEACH    0350   81 80  230/  2/  4 1013.9    3/ 6   3/ 6
DUCK             0300      66  200/  5/  6   N/A
2 E DUCK         0311      70                N/A     1/ 6
OREGON INLET     0300      86  190/  5/  5   N/A
13E OREGON INLT  0400      82                N/A     3/ 6   2/ 6
HATTERAS CG      0300      83  230/ 12/ 18   N/A
DIAMOND BUOY     0350   84 84  240/ 19/ 21 1015.0    5/ 5
CAPE LOOKOUT     0400   83     240/ 13/ 16 1015.4
BEAUFORT LAB     0300      83  230/  6/ 12   N/A
30 SE NEW RVR IN 0308   84 85  230/ 17/ 21 1015.7
30 SE NEW RVR IN 0325      85                N/A     4/ 5
27 SE WRIGHTSVLE 0308   84 84  230/ 16/ 19 1016.1
5 SE WRIGHTSVLE  0308   81 80  230/  8/ 12 1016.5
225 S CAPE HAT   0350   84 84  230/ 12/ 14 1017.8    2/ 7   2/ 7
41 SE CHARLESTON 0350   85 86  220/ 16/ 19 1016.4    3/ 4   2/ 8

$$




USA.gov is the U.S. government's official web portal to all federal, state and local government web resources and services.